STARLINK-32565 (62182 NORAD) Tracking and Keplerian Element Data

This shows tracking and keplerian element data for the satellite.

Feedback or suggestion? Click here.




ElementValue
Catalog62182
NameSTARLINK-32565
Epoch Orbit593
Epoch Day34.83335648
Epoch Year2025
RAAN90.4971
Inclination69.9992
Eccentricity0.0003273
Argument of Perigee273.1683
Mean Anonmoly341.231
Mean Motion15.21883461
Decay Rate-0.00013057
L11 62182U 24225V 25034.83335648 -.00013057 00000+0 -56814-3 0 9992
L22 62182 69.9992 90.4971 0003273 273.1683 341.2310 15.21883461 5930



Live tracking and technical data element details for STARLINK-32565 (NORAD 62182). STARLINK-32565 can be tracked NOW for your location showing map with azimuth and elevation plus other details from your city location.







IsCatalogInMostPopularTable: catalog: 62182, numindb: 24
Update: records affected: 1



GetName: 62182 STARLINK-32565

Hit Count: updated at: Mon, 19 May 2025 02:53:21 GMT